This is the latest recevied weather packets stored in our database for station/object SV9TNF-1. If no packets are shown the sender has not sent any weather packets the latest 10 day(s).
| Time | Temp. | Humidity | Pressure | Rain* | Wind** | Luminosity | Snow |
|---|---|---|---|---|---|---|---|
| 1777842606 | 10.56° C | 80% | 1006.8 hPa | 0 mm | 2.68 m/s, 251° | - | - |
| 1777842306 | 10.56° C | 82% | 1006.8 hPa | 0 mm | 3.58 m/s, 262° | - | - |
| 1777842010 | 10.56° C | 81% | 1006.4 hPa | 0 mm | 6.71 m/s, 329° | - | - |
| 1777841705 | 10.56° C | 81% | 1006.4 hPa | 0 mm | 0.89 m/s, 3° | - | - |
| 1777841405 | 10.56° C | 82% | 1006.4 hPa | 0 mm | 5.81 m/s, 255° | - | - |
| 1777841105 | 10.56° C | 82% | 1006.4 hPa | 0 mm | 10.73 m/s, 335° | - | - |
| 1777840805 | 10.56° C | 81% | 1006.4 hPa | 0 mm | 2.68 m/s, 301° | - | - |
| 1777840505 | 10.56° C | 80% | 1006.1 hPa | 0 mm | 4.92 m/s, 312° | - | - |
| 1777839904 | 10.56° C | 83% | 1006.1 hPa | 0 mm | 2.68 m/s, 303° | - | - |
| 1777839604 | 10.56° C | 82% | 1006.4 hPa | 0 mm | 4.47 m/s, 176° | - | - |
| 1777839304 | 10.56° C | 81% | 1006.4 hPa | 0 mm | 4.92 m/s, 180° | - | - |
| 1777839004 | 10° C | 83% | 1006.4 hPa | 0 mm | 2.68 m/s, 167° | - | - |
| 1777838704 | 10° C | 82% | 1006.4 hPa | 0 mm | 4.47 m/s, 289° | - | - |
| 1777838405 | 10.56° C | 80% | 1006.1 hPa | 0 mm | 2.68 m/s, 174° | - | - |
| 1777838104 | 10.56° C | 81% | 1006.1 hPa | 0 mm | 1.79 m/s, 327° | - | - |
| 1777837804 | 10.56° C | 79% | 1006.1 hPa | 0 mm | 4.02 m/s, 339° | - | - |
| 1777837504 | 10.56° C | 79% | 1006.1 hPa | 0 mm | 2.68 m/s, 329° | - | - |
| 1777837203 | 10.56° C | 80% | 1006.1 hPa | 0 mm | 4.92 m/s, 150° | - | - |
| 1777836903 | 10.56° C | 84% | 1006.1 hPa | 0 mm | 0.45 m/s, 130° | - | - |
| 1777836604 | 10.56° C | 83% | 1006.1 hPa | 0 mm | 0 m/s | - | - |
| 1777836303 | 10° C | 82% | 1006.1 hPa | 0 mm | 1.79 m/s, 342° | - | - |
| 1777836003 | 10° C | 82% | 1006.1 hPa | 0 mm | 6.71 m/s, 347° | - | - |
| 1777835703 | 10° C | 81% | 1006.1 hPa | 0 mm | 4.92 m/s, 336° | - | - |
| 1777835403 | 10° C | 81% | 1006.1 hPa | 0 mm | 5.81 m/s, 312° | - | - |
| 1777835104 | 9.44° C | 81% | 1006.1 hPa | 0 mm | 8.05 m/s, 192° | - | - |
* Rain latest hour (hover to see other rain measurements)
** Current wind speed in m/s (hover to see current wind gust speed)